Location: Unspecified
(33.9239°N, 118.0544°W)
Time: 07:07:35
(UTC-07:00)

Daily predictions for brighter satellites

Satellite Brightness Start Highest point End
(mag) Time Altitude Azimuth Time Altitude Azimuth Time Altitude Azimuth
NOSS 2-2 (C) 3.4 20:14:29 10° SSW 20:18:28 75° ESE 20:22:54 10° NE
USA 186 2.3 20:17:03 10° SE 20:19:54 39° ENE 20:22:55 10° N
Cosmos 2181 Rocket 4.1 20:16:55 10° N 20:23:23 80° E 20:29:43 10° S
CZ-4B DEB 3.4 20:20:22 10° S 20:23:36 61° W 20:26:51 10° NNW
PSLV R/B 4.5 20:21:11 10° NW 20:24:23 36° NNE 20:27:39 10° E
ERBS 3.7 20:22:45 10° NNW 20:25:46 27° NE 20:28:45 10° ESE
ATLAS 5 CENTAUR R/B 3.0 20:22:22 10° NNW 20:28:11 44° NE 20:34:17 10° SE
GPS 2-05 Rocket1 3.3 20:25:30 10° SW 20:29:06 48° SSE 20:32:38 10° E
Cosmos 1624 Rocket 4.0 20:24:03 10° S 20:29:15 67° ESE 20:34:31 10° NNE
OPS 6432 4.5 20:25:56 10° SSW 20:29:44 86° NW 20:32:55 10° NNE
Okean 1-7 3.2 20:27:47 10° N 20:32:05 78° W 20:36:25 10° S
CZ-4 DEB 3.6 20:30:33 10° SE 20:33:25 32° ENE 20:36:17 10° N
Abrixas rocket 2.5 20:31:44 10° WNW 20:35:07 66° SW 20:38:25 10° SE
COSMOS 2406 3.7 20:30:24 10° N 20:35:52 44° ENE 20:41:17 10° SE
NOSS 2-2 (E) 4.2 20:32:53 10° SW 20:36:55 60° WNW 20:41:28 10° NNE
Cosmos 2074 Rocket 4.1 20:30:46 10° S 20:36:57 64° E 20:43:09 10° NNE
Cosmos 1825 4.1 20:39:29 11° ESE 20:41:03 14° E 20:43:02 10° NE
Cosmos 1408 4.5 20:41:19 12° ESE 20:42:33 13° E 20:44:24 10° ENE
Resurs 01 Rocket 4.0 20:40:01 10° SSW 20:43:30 23° W 20:47:01 10° NW
Cosmos 2278 Rocket 3.1 20:38:59 10° SSE 20:43:37 26° ESE 20:48:16 10° NE
ERS-1 Rocket 3.4 20:42:47 10° SE 20:47:35 46° ENE 20:52:23 10° N
Cosmos 1844 4.0 20:42:19 10° S 20:47:46 47° ESE 20:53:18 10° NNE
Cosmos 407 Rocket 4.5 20:43:33 10° N 20:48:14 31° ENE 20:52:01 14° ESE
Cosmos 1844 Rocket 2.7 20:43:21 10° S 20:48:57 68° ESE 20:54:34 10° NNE
Cosmos 1674 Rocket 4.2 20:45:25 10° NNE 20:49:34 37° E 20:53:05 13° SE
Sich 1 Rocket 4.1 20:47:51 10° SSE 20:52:09 42° E 20:56:29 10° NNE
Cosmos 1452 Rocket 3.9 20:48:30 10° S 20:53:22 40° E 20:58:16 10° NNE
CZ-2D R/B 4.4 20:52:34 10° S 20:56:11 42° W 20:59:49 10° NNW
Meteosat 1 Rocket2 4.3 20:51:08 10° WSW 20:56:31 54° S 21:04:00 13° E
Centaur AC-119 2.9 20:55:01 10° SW 20:56:44 16° S 20:57:08 15° S
Cosmos 1862 4.3 20:54:56 15° SE 20:57:31 28° E 21:01:02 10° NNE
FENGYUN 3A 4.3 20:54:18 10° S 20:59:34 55° W 21:04:52 10° NNW
Meteor 1-10 Rocket 4.3 20:54:16 10° N 21:00:02 65° E 21:05:32 11° SSE
Cosmos 1190 Rocket 4.2 20:56:59 10° N 21:02:04 53° ENE 21:05:50 18° SE
Coronas F rocket 3.1 21:01:38 10° SSW 21:04:03 32° W 21:06:29 10° NNW
BREEZE-M DEB (TANK) 2.4 21:03:27 10° NW 21:05:31 55° NE 21:07:23 22° ESE
EO 1 Delta rocket 4.3 21:01:58 10° NNE 21:07:43 51° E 21:12:16 11° S
NOSS 5 (C) 4.2 21:05:33 10° SSW 21:09:19 80° ESE 21:12:28 10° NNE
Meteor 2-10 Rocket 4.0 21:04:16 10° NNW 21:10:02 74° W 21:15:38 10° S
Cosmos 1184 Rocket 3.9 21:12:21 25° E 21:12:25 25° E 21:15:12 10° NE
USA 234 4.1 21:09:24 10° ENE 21:14:32 24° ESE 21:19:38 10° S
Cosmos 2341 Rocket 4.3 21:09:51 11° SSE 21:15:32 47° E 21:21:31 10° NNE
Cosmos 1975 Rocket 4.3 21:15:45 10° NNE 21:19:16 24° ENE 21:20:00 23° E
TIMED 4.4 21:17:44 10° SSW 21:22:05 90° SSE 21:26:29 10° NNE
PSLV R/B 4.5 21:22:39 24° ENE 21:22:39 24° ENE 21:24:50 10° NNE
Cosmos 1606 2.9 21:20:32 10° N 21:24:24 55° E 21:25:47 34° SE
Cosmos 1908 Rocket 3.4 21:20:48 11° S 21:24:55 81° E 21:29:21 10° N
ALOS 4.5 21:23:28 10° SSW 21:27:08 23° W 21:30:50 10° NW
Cosmos 1782 3.0 21:23:59 10° NNW 21:28:00 70° W 21:30:42 20° S
Meteor 1-27 Rocket 3.7 21:23:05 10° N 21:28:37 66° E 21:31:46 26° SSE
H-2A R/B 2.3 21:28:42 10° WSW 21:29:11 14° WSW 21:29:11 14° WSW
deb Chang Zheng 4 3.9 21:27:39 10° N 21:32:03 68° WNW 21:36:27 10° SSW
Cosmos 676 Rocket 4.1 21:27:21 10° N 21:32:30 60° ENE 21:34:45 33° SE
Cosmos 1378 Rocket 3.6 21:28:20 10° N 21:32:34 55° E 21:33:55 38° SE
Cosmos 2084 3.5 21:28:47 10° SW 21:32:39 66° WNW 21:36:28 10° NNE
Cosmos 1939 Rocket 2.9 21:30:37 25° S 21:32:47 70° W 21:36:41 10° NNW
Cosmos 962 Rocket 4.4 21:27:58 14° S 21:33:13 67° E 21:39:22 10° NNE
Centaur D-1A AC-32 3.2 21:30:22 10° WSW 21:34:24 24° S 21:34:24 24° S
Cosmos 1174 3.9 21:32:57 10° NNW 21:35:46 38° NE 21:35:46 38° NE
USA 245 4.4 21:38:17 24° ENE 21:38:17 24° ENE 21:40:53 10° NNE
Cosmos 1954 Rocket 4.3 21:32:49 10° N 21:37:54 51° ENE 21:39:39 36° ESE
ISS -2.2 21:34:48 10° WSW 21:37:56 44° NW 21:41:04 10° NE
COS B Rocket 3.1 21:34:44 10° N 21:38:46 88° E 21:39:59 41° S
CENTAUR R/B 3.7 21:31:56 10° NW 21:39:39 51° WSW 21:46:17 16° S
SL-27 R/B 3.6 21:38:14 10° NNW 21:41:40 41° WSW 21:43:11 26° SSW
Cosmos 2154 Rocket 4.1 21:37:14 10° S 21:43:27 77° W 21:49:40 10° N
Atlas Centaur 2 1.7 21:43:21 10° W 21:46:18 38° SSW 21:46:18 38° SSW
Terra 3.7 21:47:56 15° ENE 21:47:56 15° ENE 21:50:36 10° NNE
Cosmos 1238 Rocket 2.4 21:44:37 10° N 21:47:58 74° E 21:48:12 70° ESE
SPOT 5 3.0 21:45:33 33° SSE 21:48:00 87° ENE 21:53:23 10° NNW
MetOp-B 4.1 21:48:36 38° SSE 21:50:40 75° ENE 21:56:02 10° N
CZ-3A R/B 3.9 21:40:06 10° W 21:51:59 29° SW 21:53:31 25° S
Cosmos 1295 Rocket 4.4 21:51:01 28° S 21:54:31 72° E 22:00:47 10° N
H-2A R/B 2.8 21:52:35 27° SSW 21:54:38 49° W 21:58:46 10° NNW
COSMOS 2487 2.8 21:51:57 10° N 21:55:09 54° NE 21:55:09 54° NE
UNK 4.4 21:49:36 10° NNE 21:55:48 87° ESE 22:00:11 19° SSW
SL-08 RB Rocket 4.2 22:01:25 43° ENE 22:01:29 43° ENE 22:05:51 10° N
PSLV R/B 4.3 21:58:40 10° WNW 22:01:18 40° WSW 22:01:18 40° WSW
ERBS 4.5 21:59:56 10° WNW 22:02:24 19° WSW 22:02:34 18° SW
Centaur AC-125 4.3 21:43:38 10° WSW 22:03:53 41° S 22:05:09 38° SSE
Cosmos 1023 Rocket 4.5 21:59:43 10° N 22:04:46 60° ENE 22:05:25 55° ESE
APEX 3.2 22:05:23 88° NNW 22:05:23 88° NNW 22:09:58 10° NNE
Envisat 4.0 22:03:22 21° SSW 22:06:19 40° W 22:11:06 10° NNW
ARGOS 3.2 22:05:27 53° ESE 22:06:25 62° ENE 22:11:42 10° N
Cosmos 489 Rocket 4.4 22:00:31 10° NNW 22:06:43 72° ENE 22:08:24 49° SE
GPS 2-05 Rocket1 3.4 22:03:42 10° W 22:06:51 59° WNW 22:06:51 59° WNW
Cosmos 2366 rocket 4.1 22:11:33 50° SE 22:12:43 58° E 22:18:52 10° NNE
ATLAS 5 CENTAUR R/B 3.9 22:07:28 10° NW 22:12:46 30° WSW 22:16:08 19° SSW
YAOGAN 6 3.3 22:15:44 49° WNW 22:15:44 49° WNW 22:18:43 10° NNW
CZ-3C R/B 3.5 21:58:01 10° WSW 22:16:13 30° SSW 22:17:14 29° S
Cosmos 1825 4.1 22:14:22 18° SW 22:16:21 27° W 22:19:40 10° NNW
Cosmos 1420 Rocket 4.5 22:13:51 17° SSW 22:17:47 59° WNW 22:22:58 10° N
OAO 3 Rocket 3.8 22:14:19 10° WSW 22:17:54 45° SW 22:17:54 45° SW
Okean 2 Rocket 4.0 22:20:09 34° SW 22:21:33 46° W 22:25:48 10° N
H-2A R/B 2.6 22:24:55 46° ENE 22:24:55 46° ENE 22:29:56 10° N
Cosmos 1242 Rocket 3.6 22:22:56 10° NNW 22:25:39 44° NW 22:25:39 44° NW
Cosmos 2278 Rocket 3.7 22:22:20 10° SW 22:27:28 35° WNW 22:32:40 10° N
Meteor 1-14 Rocket 4.3 22:28:35 50° SSW 22:30:04 76° W 22:35:42 10° N
Cosmos 614 Rocket 4.0 22:25:35 10° NNW 22:30:21 66° NE 22:30:21 66° NE
OAO 1 Rocket 4.3 22:26:00 10° WSW 22:30:56 77° SW 22:30:56 77° SW
Cosmos 1833 Rocket 3.5 22:26:33 10° N 22:31:40 37° ENE 22:31:40 37° ENE
Cosmos 1140 Rocket 3.7 22:33:32 10° NNW 22:38:37 61° WSW 22:38:44 61° WSW
Cosmos 2218 Rocket 4.1 22:37:00 46° SSW 22:38:59 73° W 22:45:25 10° N
SPOT 1/Viking Rocket 4.0 22:39:37 49° WSW 22:40:11 52° W 22:45:16 10° NNW
CZ-4 R/B 4.5 22:40:22 10° N 22:44:52 49° WNW 22:45:17 47° W
Cosmos 2082 Rocket 2.3 22:45:33 10° NNW 22:50:49 69° NNE 22:50:49 69° NNE
USA 234 3.3 22:51:18 10° NE 22:57:49 73° NW 23:04:18 10° SW
Cosmos 1727 Rocket 3.8 22:52:55 10° N 22:59:06 84° W 22:59:09 84° WSW
Timation 1 Rocket 4.4 23:07:59 71° WNW 23:07:59 71° WNW 23:13:59 10° NNE
Terra 3.3 23:26:49 34° NW 23:26:49 34° NW 23:29:49 10° NNW
Cosmos 1821 Rocket 4.5 23:31:18 54° NNE 23:31:18 54° NNE 23:36:06 10° N
Cosmos 2369 Rocket 3.9 23:39:18 24° NE 23:39:18 24° NE 23:41:34 10° NNE
Lacrosse 5 4.0 23:48:56 20° NNE 23:48:56 20° NNE 23:50:32 10° NNE
USA 229 DEB 4.1 23:41:36 10° NW 23:47:41 57° W 23:47:41 57° W
USA 229 4.1 23:41:42 10° NW 23:47:47 58° W 23:47:47 58° W
